ISR761 LLBG-LKPR

Flight info

Callsign ISR761
Flight time 3h 27m
Altitude 34000
Route DAFNA DCT VELOX N71 DESPO DCT VOLBE DCT VESAR UB545 MUT UL619 OSVEL UQ23 OSDAN/N0451F360 UQ26 TUDBU DCT ARNOV DCT ETUBA DCT BUDOP DCT LITKU DCT SLC DCT VALPI DCT TUMKA DCT VLM
Aircraft A320/M-SDE2FGIJ1LORVWY/SB1

Departure

Time 2026-05-04 07:49
Airport Ben Gurion International Airport (LLBG)

Arrival

Time 2026-05-04 11:16
Airport Václav Havel Airport Prague (LKPR)
Time Latitude Longitude Altitude Speed Heading
2026-05-04 07:12 32.00424 34.87553 117 ft 0 kts 227°
2026-05-04 07:38 32.00518 34.87601 120 ft 3 kts 232°
2026-05-04 07:38 32.00531 34.87623 116 ft 3 kts 240°
2026-05-04 07:38 32.00542 34.87643 116 ft 3 kts 231°
2026-05-04 07:38 32.00557 34.87661 117 ft 3 kts 208°
2026-05-04 07:39 32.00577 34.87669 115 ft 3 kts 179°
2026-05-04 07:39 32.00598 34.87664 115 ft 3 kts 146°
2026-05-04 07:39 32.00613 34.87647 115 ft 3 kts 122°
2026-05-04 07:39 32.00625 34.87625 116 ft 2 kts 121°
2026-05-04 07:40 32.00625 34.87624 116 ft 0 kts 121°
2026-05-04 07:41 32.00620 34.87635 116 ft 3 kts 121°
2026-05-04 07:41 32.00604 34.87665 115 ft 7 kts 121°
2026-05-04 07:42 32.00619 34.87723 119 ft 9 kts 40°
2026-05-04 07:42 32.00623 34.87792 117 ft 10 kts 122°
2026-05-04 07:42 32.00584 34.87868 118 ft 12 kts 115°
2026-05-04 07:42 32.00622 34.87943 119 ft 13 kts 30°
2026-05-04 07:43 32.00703 34.88000 119 ft 14 kts 31°
2026-05-04 07:43 32.00788 34.88063 120 ft 16 kts 32°
2026-05-04 07:43 32.00894 34.88140 118 ft 19 kts 32°
2026-05-04 07:43 32.01012 34.88226 118 ft 20 kts 32°
2026-05-04 07:44 32.01134 34.88313 120 ft 21 kts 31°
2026-05-04 07:44 32.01257 34.88405 120 ft 21 kts 36°
2026-05-04 07:44 32.01368 34.88531 120 ft 23 kts 51°
2026-05-04 07:44 32.01458 34.88703 119 ft 26 kts 66°
2026-05-04 07:45 32.01506 34.88909 117 ft 26 kts 79°
2026-05-04 07:45 32.01536 34.89101 120 ft 16 kts 80°
2026-05-04 07:45 32.01609 34.89160 117 ft 15 kts 348°
2026-05-04 07:45 32.01698 34.89140 118 ft 13 kts 349°
2026-05-04 07:46 32.01746 34.89128 117 ft 4 kts 336°
2026-05-04 07:46 32.01750 34.89111 118 ft 3 kts 270°
2026-05-04 07:46 32.01738 34.89041 118 ft 23 kts 260°
2026-05-04 07:46 32.01701 34.88799 119 ft 66 kts 259°
2026-05-04 07:47 32.01587 34.88054 116 ft 117 kts 259°
2026-05-04 07:47 32.01416 34.86941 166 ft 154 kts 259°
2026-05-04 07:47 32.01209 34.85701 727 ft 154 kts 256°
2026-05-04 07:49 31.99201 34.74947 3825 ft 243 kts 276°
2026-05-04 07:49 31.99728 34.73024 4628 ft 248 kts 287°
2026-05-04 07:49 32.00330 34.71135 5543 ft 246 kts 287°
2026-05-04 07:50 32.00922 34.69235 6347 ft 248 kts 286°
2026-05-04 07:50 32.01516 34.67316 7050 ft 251 kts 286°
2026-05-04 07:50 32.02123 34.65378 7768 ft 254 kts 289°
2026-05-04 07:50 32.03126 34.63631 8456 ft 266 kts 313°
2026-05-04 07:51 32.04641 34.62326 9169 ft 272 kts 320°
2026-05-04 07:51 32.06224 34.61077 9886 ft 275 kts 321°
2026-05-04 07:51 32.07839 34.59815 10317 ft 287 kts 320°
2026-05-04 07:51 32.09564 34.58458 10448 ft 309 kts 321°
2026-05-04 07:52 32.11396 34.57015 10734 ft 322 kts 321°
2026-05-04 07:52 32.13277 34.55540 11290 ft 326 kts 320°
2026-05-04 07:52 32.15172 34.54055 11926 ft 328 kts 320°
2026-05-04 07:52 32.17079 34.52558 12563 ft 330 kts 320°
2026-05-04 07:53 32.18998 34.51048 13231 ft 332 kts 319°
2026-05-04 07:54 32.32699 34.40195 17107 ft 346 kts 316°
2026-05-04 07:55 32.34704 34.38604 17643 ft 348 kts 315°
2026-05-04 07:55 32.36722 34.37003 18181 ft 351 kts 315°
2026-05-04 07:55 32.38755 34.35392 18659 ft 353 kts 314°
2026-05-04 07:55 32.40801 34.33769 19136 ft 355 kts 314°
2026-05-04 07:56 32.42860 34.32133 19621 ft 357 kts 314°
2026-05-04 07:56 32.44927 34.30487 20113 ft 360 kts 314°
2026-05-04 07:56 32.47010 34.28825 20597 ft 362 kts 314°
2026-05-04 07:56 32.49103 34.27155 21075 ft 364 kts 314°
2026-05-04 07:57 32.51214 34.25475 21517 ft 367 kts 314°
2026-05-04 07:57 32.53461 34.23944 21957 ft 382 kts 323°
2026-05-04 07:57 32.56039 34.22908 22377 ft 402 kts 335°
2026-05-04 07:57 32.58829 34.22456 22793 ft 416 kts 342°
2026-05-04 07:58 32.61754 34.22136 23280 ft 418 kts 342°
2026-05-04 07:58 32.64659 34.21819 23680 ft 420 kts 342°
2026-05-04 07:58 32.67536 34.21500 24039 ft 422 kts 342°
2026-05-04 07:58 32.70509 34.21162 24352 ft 425 kts 342°
2026-05-04 07:59 32.73419 34.20824 24662 ft 427 kts 342°
2026-05-04 07:59 32.76424 34.20478 24985 ft 430 kts 342°
2026-05-04 07:59 32.79367 34.20143 25281 ft 432 kts 342°
2026-05-04 07:59 32.82366 34.19802 25588 ft 434 kts 342°
2026-05-04 08:00 32.85381 34.19458 25935 ft 437 kts 341°
2026-05-04 08:00 32.88414 34.19112 26232 ft 439 kts 341°
2026-05-04 08:00 32.91463 34.18764 26517 ft 441 kts 341°
2026-05-04 08:02 33.13199 34.16270 28702 ft 452 kts 342°
2026-05-04 08:02 33.16329 34.15916 29105 ft 452 kts 342°
2026-05-04 08:02 33.19453 34.15558 29487 ft 451 kts 342°
2026-05-04 08:03 33.22577 34.15195 29879 ft 451 kts 341°
2026-05-04 08:03 33.25698 34.14831 30227 ft 450 kts 341°
2026-05-04 08:03 33.28817 34.14472 30555 ft 450 kts 342°
2026-05-04 08:03 33.31926 34.14114 30910 ft 449 kts 342°
2026-05-04 08:04 33.35028 34.13756 31259 ft 447 kts 342°
2026-05-04 08:04 33.38121 34.13401 31611 ft 446 kts 342°
2026-05-04 08:04 33.41207 34.13046 31964 ft 445 kts 342°
2026-05-04 08:04 33.44284 34.12692 32320 ft 444 kts 342°
2026-05-04 08:05 33.47353 34.12335 32672 ft 442 kts 342°
2026-05-04 08:05 33.50408 34.11976 33031 ft 441 kts 342°
2026-05-04 08:05 33.53463 34.11619 33408 ft 440 kts 342°
2026-05-04 08:05 33.56511 34.11264 33727 ft 440 kts 342°
2026-05-04 08:06 33.59558 34.10913 33927 ft 440 kts 342°
2026-05-04 08:06 33.62620 34.10554 33968 ft 445 kts 342°
2026-05-04 08:06 33.68824 34.09818 33967 ft 450 kts 343°
2026-05-04 08:08 33.91013 34.12699 33949 ft 490 kts 13°
2026-05-04 08:08 33.94191 34.14201 33955 ft 490 kts 13°
2026-05-04 08:11 34.22743 34.27663 33924 ft 492 kts 14°
2026-05-04 08:11 34.32318 34.32215 33971 ft 493 kts 14°
2026-05-04 08:12 34.38715 34.35247 33922 ft 493 kts 13°
2026-05-04 08:12 34.45252 34.36999 33909 ft 473 kts 354°
2026-05-04 08:13 34.51661 34.36498 33899 ft 453 kts 339°
2026-05-04 08:13 34.57850 34.34983 33912 ft 454 kts 340°
2026-05-04 08:14 34.64056 34.33471 33903 ft 455 kts 340°
2026-05-04 08:16 34.88889 34.27351 33882 ft 457 kts 340°
2026-05-04 08:16 34.95124 34.25807 33870 ft 457 kts 341°
2026-05-04 08:17 35.01359 34.24265 33866 ft 457 kts 341°
2026-05-04 08:17 35.07572 34.22730 33852 ft 455 kts 341°
2026-05-04 08:19 35.32394 34.16533 33843 ft 454 kts 342°
2026-05-04 08:20 35.38589 34.14979 33842 ft 454 kts 342°
2026-05-04 08:20 35.44787 34.13420 33842 ft 455 kts 342°
2026-05-04 08:21 35.50985 34.11862 33839 ft 455 kts 342°
2026-05-04 08:21 35.57187 34.10308 33837 ft 455 kts 342°
2026-05-04 08:22 35.63387 34.08746 33839 ft 455 kts 342°
2026-05-04 08:24 35.88120 34.02481 33837 ft 454 kts 342°
2026-05-04 08:24 35.93926 33.99809 33847 ft 440 kts 324°
2026-05-04 08:25 35.99140 33.95887 33836 ft 439 kts 323°
2026-05-04 08:25 36.04347 33.91953 33849 ft 438 kts 324°
2026-05-04 08:27 36.25053 33.76258 33835 ft 436 kts 323°
2026-05-04 08:28 36.30220 33.72319 33830 ft 436 kts 324°
2026-05-04 08:28 36.35389 33.68379 33829 ft 436 kts 324°
2026-05-04 08:29 36.40559 33.64430 33826 ft 437 kts 324°
2026-05-04 08:31 36.61273 33.48527 33821 ft 439 kts 325°
2026-05-04 08:33 36.81172 33.33170 33829 ft 439 kts 325°
2026-05-04 08:35 36.96570 33.15226 33836 ft 434 kts 310°
2026-05-04 08:35 36.98613 33.12452 33837 ft 433 kts 310°
2026-05-04 08:35 37.02659 33.06951 33846 ft 432 kts 310°
2026-05-04 08:37 37.16856 32.87505 33835 ft 432 kts 311°
2026-05-04 08:38 37.20908 32.81937 33832 ft 432 kts 311°
2026-05-04 08:38 37.24953 32.76364 33832 ft 432 kts 311°
2026-05-04 08:40 37.41114 32.54011 33831 ft 432 kts 312°
2026-05-04 08:41 37.45144 32.48409 33820 ft 432 kts 312°
2026-05-04 08:41 37.49166 32.42804 33813 ft 431 kts 312°
2026-05-04 08:42 37.53191 32.37200 33818 ft 431 kts 312°
2026-05-04 08:42 37.57186 32.31638 33826 ft 430 kts 313°
2026-05-04 08:43 37.61179 32.26058 33840 ft 427 kts 313°
2026-05-04 08:43 37.65141 32.20495 33834 ft 425 kts 313°
2026-05-04 08:44 37.69095 32.14953 33845 ft 424 kts 313°
2026-05-04 08:46 37.84949 31.92610 33834 ft 431 kts 313°
2026-05-04 08:46 37.88953 31.86942 33832 ft 433 kts 313°
2026-05-04 08:47 37.92975 31.81234 33834 ft 435 kts 313°
2026-05-04 08:47 37.97014 31.75497 33839 ft 437 kts 313°
2026-05-04 08:48 38.01060 31.69737 33852 ft 438 kts 313°
2026-05-04 08:48 38.05110 31.63965 33866 ft 438 kts 313°
2026-05-04 08:49 38.09159 31.58189 33880 ft 438 kts 313°
2026-05-04 08:50 38.23373 31.37807 33887 ft 441 kts 313°
2026-05-04 08:51 38.27438 31.31951 33904 ft 442 kts 313°
2026-05-04 08:51 38.31497 31.26083 33903 ft 442 kts 313°
2026-05-04 08:52 38.35557 31.20205 33892 ft 442 kts 313°
2026-05-04 08:52 38.39626 31.14315 33909 ft 443 kts 313°
2026-05-04 08:54 38.57705 30.93472 34291 ft 437 kts 326°
2026-05-04 08:55 38.60201 30.91265 34553 ft 436 kts 326°
2026-05-04 08:55 38.62695 30.89059 34771 ft 436 kts 326°
2026-05-04 08:55 38.65188 30.86849 34964 ft 436 kts 326°
2026-05-04 08:55 38.67684 30.84632 35152 ft 437 kts 326°
2026-05-04 08:57 38.85240 30.69056 35942 ft 439 kts 330°
2026-05-04 09:01 39.23373 30.44118 35962 ft 440 kts 334°
2026-05-04 09:01 39.28833 30.40528 35970 ft 440 kts 334°
2026-05-04 09:02 39.34297 30.36924 35969 ft 441 kts 334°
2026-05-04 09:02 39.39767 30.33317 35967 ft 442 kts 334°
2026-05-04 09:03 39.45245 30.29687 35980 ft 442 kts 334°
2026-05-04 09:03 39.50730 30.26078 35977 ft 442 kts 336°
2026-05-04 09:04 39.56376 30.22907 35983 ft 442 kts 340°
2026-05-04 09:04 39.62119 30.20016 35976 ft 443 kts 340°
2026-05-04 09:05 39.67851 30.17068 35990 ft 443 kts 339°
2026-05-04 09:05 39.73519 30.14040 35992 ft 444 kts 339°
2026-05-04 09:06 39.79222 30.10953 35978 ft 445 kts 339°
2026-05-04 09:08 40.02040 29.98652 36014 ft 445 kts 339°
2026-05-04 09:08 40.07760 29.95558 36029 ft 445 kts 339°
2026-05-04 09:09 40.13488 29.92455 36023 ft 446 kts 339°
2026-05-04 09:09 40.19223 29.89341 36008 ft 447 kts 339°
2026-05-04 09:10 40.24973 29.86211 36010 ft 448 kts 339°
2026-05-04 09:10 40.30729 29.83067 36015 ft 449 kts 339°
2026-05-04 09:11 40.36494 29.79914 36011 ft 449 kts 339°
2026-05-04 09:11 40.42271 29.76757 36015 ft 450 kts 340°
2026-05-04 09:12 40.48051 29.73591 36023 ft 451 kts 340°
2026-05-04 09:14 40.70502 29.59051 36025 ft 457 kts 324°
2026-05-04 09:14 40.75468 29.53818 36023 ft 457 kts 324°
2026-05-04 09:15 40.80403 29.48620 36040 ft 457 kts 324°
2026-05-04 09:15 40.85368 29.43375 36034 ft 458 kts 324°
2026-05-04 09:17 41.07859 29.19466 36019 ft 463 kts 324°
2026-05-04 09:18 41.12712 29.13843 36024 ft 467 kts 314°
2026-05-04 09:18 41.16484 29.06778 36010 ft 471 kts 306°
2026-05-04 09:19 41.20105 28.99519 36035 ft 472 kts 307°
2026-05-04 09:19 41.23736 28.92246 36033 ft 473 kts 307°
2026-05-04 09:20 41.26757 28.86183 36046 ft 474 kts 306°
2026-05-04 09:20 41.30389 28.78866 36059 ft 475 kts 306°
2026-05-04 09:21 41.34021 28.71539 36056 ft 475 kts 306°
2026-05-04 09:21 41.37658 28.64204 36057 ft 475 kts 306°
2026-05-04 09:22 41.41293 28.56856 36057 ft 475 kts 306°
2026-05-04 09:22 41.44928 28.49502 36058 ft 475 kts 306°
2026-05-04 09:23 41.48560 28.42138 36043 ft 475 kts 309°
2026-05-04 09:23 41.52968 28.35684 36044 ft 470 kts 319°
2026-05-04 09:25 41.71619 28.11104 36045 ft 473 kts 318°
2026-05-04 09:26 41.76289 28.04902 36048 ft 473 kts 318°
2026-05-04 09:26 41.80963 27.98694 36055 ft 473 kts 318°
2026-05-04 09:27 41.85632 27.92463 36054 ft 473 kts 318°
2026-05-04 09:27 41.90298 27.86226 36053 ft 474 kts 318°
2026-05-04 09:28 41.94967 27.79972 36040 ft 474 kts 318°
2026-05-04 09:28 41.99667 27.73757 36044 ft 474 kts 319°
2026-05-04 09:29 42.04474 27.67691 36047 ft 474 kts 320°
2026-05-04 09:29 42.09300 27.61636 36045 ft 474 kts 320°
2026-05-04 09:30 42.14094 27.55534 36055 ft 474 kts 319°
2026-05-04 09:30 42.18876 27.49390 36057 ft 475 kts 319°
2026-05-04 09:31 42.23660 27.43237 36058 ft 475 kts 319°
2026-05-04 09:31 42.28450 27.37087 36058 ft 476 kts 319°
2026-05-04 09:32 42.33211 27.30961 36067 ft 476 kts 319°
2026-05-04 09:34 42.52358 27.06156 36072 ft 477 kts 319°
2026-05-04 09:34 42.57139 26.99920 36076 ft 477 kts 318°
2026-05-04 09:35 42.61916 26.93669 36079 ft 477 kts 318°
2026-05-04 09:35 42.66697 26.87421 36090 ft 477 kts 318°
2026-05-04 09:37 42.80517 26.62223 36081 ft 481 kts 305°
2026-05-04 09:37 42.82526 26.58599 36077 ft 479 kts 314°
2026-05-04 09:38 42.87406 26.52476 36078 ft 477 kts 321°
2026-05-04 09:38 42.92399 26.46491 36094 ft 477 kts 320°
2026-05-04 09:39 42.97361 26.40491 36117 ft 476 kts 320°
2026-05-04 09:39 43.02315 26.34493 36125 ft 476 kts 321°
2026-05-04 09:40 43.07269 26.28496 36125 ft 476 kts 320°
2026-05-04 09:40 43.12216 26.22503 36137 ft 474 kts 320°
2026-05-04 09:42 43.31833 25.98562 36128 ft 472 kts 320°
2026-05-04 09:43 43.36723 25.92560 36131 ft 471 kts 320°
2026-05-04 09:43 43.41605 25.86549 36132 ft 471 kts 320°
2026-05-04 09:44 43.46490 25.80533 36135 ft 471 kts 320°
2026-05-04 09:46 43.65983 25.56380 36133 ft 471 kts 320°
2026-05-04 09:46 43.70849 25.50311 36138 ft 471 kts 320°
2026-05-04 09:47 43.75710 25.44231 36138 ft 471 kts 320°
2026-05-04 09:49 43.95155 25.19812 36136 ft 472 kts 319°
2026-05-04 09:51 44.12146 24.98265 36150 ft 472 kts 319°
2026-05-04 09:51 44.16988 24.92094 36158 ft 472 kts 319°
2026-05-04 09:52 44.21822 24.85919 36146 ft 471 kts 319°
2026-05-04 09:52 44.26646 24.79750 36148 ft 470 kts 319°
2026-05-04 09:53 44.31461 24.73580 36150 ft 470 kts 319°
2026-05-04 09:53 44.36233 24.67440 36148 ft 469 kts 319°
2026-05-04 09:54 44.41022 24.61261 36146 ft 467 kts 320°
2026-05-04 09:54 44.45791 24.55101 36144 ft 466 kts 320°
2026-05-04 09:55 44.50549 24.48946 36144 ft 465 kts 319°
2026-05-04 09:55 44.55293 24.42786 36138 ft 465 kts 319°
2026-05-04 09:56 44.60022 24.36631 36135 ft 463 kts 320°
2026-05-04 09:56 44.64735 24.30488 36135 ft 462 kts 320°
2026-05-04 09:57 44.69436 24.24350 36129 ft 461 kts 320°
2026-05-04 09:57 44.74118 24.18208 36126 ft 460 kts 320°
2026-05-04 09:58 44.78794 24.12053 36117 ft 460 kts 320°
2026-05-04 09:58 44.83475 24.05898 36120 ft 460 kts 320°
2026-05-04 10:00 45.02128 23.81209 36130 ft 459 kts 320°
2026-05-04 10:04 45.34491 23.37796 36140 ft 455 kts 320°
2026-05-04 10:04 45.39085 23.31593 36143 ft 456 kts 320°
2026-05-04 10:05 45.43674 23.25368 36139 ft 456 kts 319°
2026-05-04 10:05 45.48260 23.19119 36145 ft 456 kts 320°
2026-05-04 10:06 45.52847 23.12863 36138 ft 456 kts 319°
2026-05-04 10:06 45.57395 23.06635 36148 ft 456 kts 319°
2026-05-04 10:08 45.73418 22.84621 36172 ft 455 kts 319°
2026-05-04 10:08 45.77965 22.78335 36175 ft 454 kts 319°
2026-05-04 10:09 45.82495 22.72063 36175 ft 452 kts 319°
2026-05-04 10:09 45.87016 22.65790 36170 ft 452 kts 319°
2026-05-04 10:10 45.90766 22.60582 36168 ft 451 kts 319°
2026-05-04 10:10 45.95261 22.54315 36172 ft 450 kts 319°
2026-05-04 10:11 45.99739 22.48050 36176 ft 449 kts 319°
2026-05-04 10:11 46.04210 22.41779 36184 ft 449 kts 319°
2026-05-04 10:12 46.08714 22.35457 36169 ft 448 kts 319°
2026-05-04 10:12 46.13144 22.29230 36177 ft 447 kts 319°
2026-05-04 10:13 46.17587 22.22960 36181 ft 447 kts 319°
2026-05-04 10:13 46.22022 22.16682 36180 ft 446 kts 319°
2026-05-04 10:14 46.26450 22.10399 36185 ft 446 kts 318°
2026-05-04 10:16 46.44088 21.85245 36188 ft 444 kts 318°
2026-05-04 10:16 46.48478 21.78955 36180 ft 443 kts 318°
2026-05-04 10:17 46.52824 21.72713 36188 ft 442 kts 317°
2026-05-04 10:19 46.70394 21.47715 36184 ft 440 kts 323°
2026-05-04 10:19 46.75143 21.42097 36187 ft 440 kts 323°
2026-05-04 10:20 46.79885 21.36461 36188 ft 440 kts 323°
2026-05-04 10:20 46.84626 21.30819 36188 ft 439 kts 323°
2026-05-04 10:21 46.89359 21.25175 36174 ft 439 kts 322°
2026-05-04 10:21 46.94088 21.19512 36181 ft 439 kts 322°
2026-05-04 10:22 47.01175 21.11000 36186 ft 439 kts 322°
2026-05-04 10:23 47.05900 21.05324 36184 ft 439 kts 322°
2026-05-04 10:25 47.24755 20.82497 36179 ft 439 kts 322°
2026-05-04 10:25 47.29438 20.76805 36180 ft 439 kts 322°
2026-05-04 10:26 47.34144 20.71059 36180 ft 439 kts 322°
2026-05-04 10:26 47.38846 20.65306 36180 ft 439 kts 322°
2026-05-04 10:27 47.43604 20.59464 36159 ft 423 kts 322°
2026-05-04 10:27 47.47980 20.54089 36160 ft 419 kts 322°
2026-05-04 10:28 47.52455 20.48581 36159 ft 418 kts 322°
2026-05-04 10:28 47.56914 20.43057 36158 ft 418 kts 321°
2026-05-04 10:29 47.61375 20.37534 36155 ft 418 kts 321°
2026-05-04 10:29 47.65832 20.32005 36158 ft 418 kts 321°
2026-05-04 10:30 47.70291 20.26461 36159 ft 418 kts 321°
2026-05-04 10:30 47.74744 20.20905 36164 ft 418 kts 321°
2026-05-04 10:31 47.79197 20.15328 36156 ft 419 kts 321°
2026-05-04 10:32 47.94763 19.95802 36159 ft 419 kts 321°
2026-05-04 10:33 47.99215 19.90185 36150 ft 419 kts 320°
2026-05-04 10:33 48.03661 19.84558 36160 ft 419 kts 320°
2026-05-04 10:34 48.08102 19.78922 36153 ft 419 kts 320°
2026-05-04 10:34 48.12541 19.73275 36154 ft 419 kts 320°
2026-05-04 10:35 48.16977 19.67615 36153 ft 419 kts 320°
2026-05-04 10:35 48.21379 19.61979 36151 ft 419 kts 319°
2026-05-04 10:36 48.25174 19.55294 36146 ft 420 kts 306°
2026-05-04 10:36 48.28511 19.48093 36146 ft 420 kts 306°
2026-05-04 10:37 48.31850 19.40888 36145 ft 420 kts 306°
2026-05-04 10:37 48.35155 19.33720 36144 ft 420 kts 306°
2026-05-04 10:39 48.46801 19.08461 36142 ft 419 kts 307°
2026-05-04 10:40 48.50299 19.01452 36140 ft 418 kts 308°
2026-05-04 10:40 48.53846 18.94501 36136 ft 418 kts 308°
2026-05-04 10:41 48.57352 18.87513 36128 ft 418 kts 307°
2026-05-04 10:41 48.60827 18.80484 36120 ft 418 kts 307°
2026-05-04 10:42 48.64296 18.73441 36123 ft 417 kts 307°
2026-05-04 10:42 48.67757 18.66414 36127 ft 416 kts 307°
2026-05-04 10:43 48.71221 18.59383 36119 ft 416 kts 307°
2026-05-04 10:45 48.84900 18.31395 36090 ft 413 kts 306°
2026-05-04 10:45 48.88352 18.24287 36079 ft 424 kts 305°
2026-05-04 10:46 48.91881 18.17001 36074 ft 428 kts 305°
2026-05-04 10:46 48.95402 18.09724 36075 ft 433 kts 306°
2026-05-04 10:47 48.98947 18.02354 36068 ft 432 kts 305°
2026-05-04 10:47 49.02251 17.94829 36065 ft 426 kts 295°
2026-05-04 10:49 49.09428 17.60203 36086 ft 429 kts 286°
2026-05-04 10:50 49.11147 17.51474 36084 ft 430 kts 286°
2026-05-04 10:52 49.17971 17.16514 36068 ft 430 kts 286°
2026-05-04 10:52 49.19666 17.07757 36072 ft 429 kts 286°
2026-05-04 10:54 49.26365 16.72610 36041 ft 431 kts 285°
2026-05-04 10:56 49.32065 16.42219 32769 ft 422 kts 285°
2026-05-04 10:56 49.32868 16.37895 32256 ft 423 kts 285°
2026-05-04 10:56 49.33673 16.33544 31724 ft 425 kts 285°
2026-05-04 10:57 49.34480 16.29179 31189 ft 427 kts 285°
2026-05-04 10:57 49.35289 16.24795 30632 ft 428 kts 285°
2026-05-04 10:57 49.36100 16.20390 30063 ft 430 kts 285°
2026-05-04 10:57 49.36915 16.15958 29423 ft 432 kts 285°
2026-05-04 10:58 49.37731 16.11508 28825 ft 434 kts 285°
2026-05-04 10:58 49.38547 16.07048 28206 ft 435 kts 284°
2026-05-04 10:58 49.39363 16.02566 27555 ft 437 kts 284°
2026-05-04 10:58 49.40187 15.98031 26878 ft 447 kts 285°
2026-05-04 10:59 49.41237 15.93522 26147 ft 451 kts 293°
2026-05-04 10:59 49.42664 15.89240 25378 ft 449 kts 296°
2026-05-04 10:59 49.44114 15.85016 24616 ft 445 kts 296°
2026-05-04 10:59 49.45548 15.80822 23874 ft 443 kts 296°
2026-05-04 11:00 49.46973 15.76631 23026 ft 441 kts 296°
2026-05-04 11:01 49.56465 15.48561 18119 ft 410 kts 294°
2026-05-04 11:02 49.57347 15.45934 17665 ft 407 kts 294°
2026-05-04 11:02 49.58640 15.42077 17059 ft 403 kts 295°
2026-05-04 11:05 49.77058 14.93503 10461 ft 317 kts 304°
2026-05-04 11:06 49.78379 14.90846 10340 ft 306 kts 304°
2026-05-04 11:06 49.79656 14.88278 10215 ft 297 kts 304°
2026-05-04 11:06 49.80896 14.85775 10061 ft 289 kts 304°
2026-05-04 11:06 49.82111 14.83303 9977 ft 288 kts 304°
2026-05-04 11:08 49.90205 14.66812 6934 ft 240 kts 304°
2026-05-04 11:10 49.96820 14.53309 4854 ft 192 kts 305°
2026-05-04 11:12 50.02058 14.42567 3523 ft 151 kts 306°
2026-05-04 11:12 50.02687 14.41274 3326 ft 149 kts 307°
2026-05-04 11:12 50.03307 14.39998 3132 ft 147 kts 307°
2026-05-04 11:12 50.03926 14.38726 2938 ft 148 kts 307°
2026-05-04 11:13 50.04546 14.37450 2741 ft 148 kts 308°
2026-05-04 11:13 50.05165 14.36168 2565 ft 148 kts 308°
2026-05-04 11:13 50.05795 14.34889 2386 ft 149 kts 308°
2026-05-04 11:13 50.06420 14.33597 2142 ft 150 kts 308°
2026-05-04 11:14 50.06630 14.33159 2074 ft 149 kts 308°
2026-05-04 11:16 50.10484 14.25730 1179 ft 2 kts 77°
2026-05-04 11:16 50.10488 14.25761 1179 ft 4 kts 78°
2026-05-04 11:16 50.10490 14.25776 1175 ft 0 kts 79°
2026-05-04 11:19 50.10497 14.25835 1175 ft 12 kts 79°
2026-05-04 11:19 50.10511 14.25948 1175 ft 3 kts 79°
2026-05-04 11:19 50.10512 14.25959 1175 ft 0 kts 79°
2026-05-04 11:20 50.10513 14.25967 1175 ft 0 kts 79°
2026-05-04 11:20 50.10513 14.25968 1175 ft 1 kts 79°
2026-05-04 11:20 50.10527 14.25977 1173 ft 5 kts 23°
2026-05-04 11:22 50.11059 14.26650 1172 ft 9 kts 148°
2026-05-04 11:22 50.11006 14.26705 1174 ft 9 kts 148°
2026-05-04 11:23 50.10978 14.26740 1170 ft 4 kts 113°
2026-05-04 11:23 50.10988 14.26788 1174 ft 4 kts 66°
2026-05-04 11:24 50.10995 14.26811 1172 ft 0 kts 64°